Simultaneous Nadir Overpasses (SNOs) Predictions

Prediction of SNOs between FY3D and AQUA Satellite Orbit:

Table of predicted SNOs for the next 14.0 days since TLE Epoch: 12/14/2019
Index Date (FY3D) Time (FY3D) Lat,Lon (FY3D) SZA (FY3D ) Date (AQUA) Time (AQUA) Lat,Lon (AQUA) SZA (AQUA ) Distance(km) Time Diff (sec)
1 12/16/2019 12:27:58 68.85,-141.47 126.69 12/16/2019 12:28:21 68.85,-141.44 126.65 1.39 23
2 12/16/2019 13:17:47 -71.82, 30.55 56.18 12/16/2019 13:16:54 -71.83, 30.57 56.13 0.98 53
3 12/19/2019 04:44:28 68.55, -25.98 127.16 12/19/2019 04:44:55 68.55, -25.94 127.11 1.70 27
4 12/19/2019 05:34:17 -71.53, 145.91 55.72 12/19/2019 05:33:28 -71.54, 145.96 55.68 1.84 49
5 12/21/2019 21:00:56 68.41, 89.73 127.42 12/21/2019 21:01:27 68.41, 89.77 127.37 1.54 31
6 12/21/2019 21:50:46 -71.35, -98.52 55.41 12/21/2019 21:50:01 -71.35, -98.47 55.38 2.22 45
7 12/24/2019 13:17:22 68.37,-154.42 127.54 12/24/2019 13:17:57 68.37,-154.40 127.49 0.92 35
8 12/24/2019 14:07:13 -71.26, 17.22 55.26 12/24/2019 14:06:32 -71.27, 17.28 55.23 2.11 41
9 12/27/2019 05:33:47 68.39, -38.50 127.55 12/27/2019 05:34:26 68.39, -38.50 127.50 0.15 39




NCC Satellite Simultaneous Nadir Overpasses (SNOs) Prediction Service
